Location: Chuathbaluk
(61.5726°N, 159.2454°W)
Time: 23:35:35
(UTC+00:00)

Transit 4A - Pass Details

Date: 29 November 2020
Orbit: 864 x 980 km, 66.8° (Epoch: 20 January)

Event Time Altitude Azimuth Distance (km) Brightness Sun altitude
Rises 01:10:32 0° 301° (WNW) 3,694 11.1 0.6°
Reaches altitude 10° 01:13:07 10° 303° (WNW) 2,744 10.5 0.4°
Maximum altitude 01:19:35 81° 30° (NNE) 995 8.1 -0.1°
Drops below altitude 10° 01:25:56 10° 120° (ESE) 2,696 10.2 -0.6°
Sets 01:28:28 0° 121° (ESE) 3,626 10.9 -0.8°
